Stations météo

Publicité
St. James's Park, Grande-Bretagne (3770): Température de l'air & dewpoint: 01.07.2020 13:00:00 - 07.07.2020 13:00:00 (BST)St. James's Park, Grande-Bretagne (3770): Température de l'air -20cm: 01.07.2020 13:00:00 - 07.07.2020 13:00:00 (BST)St. James's Park, Grande-Bretagne (3770): Quantités de précipitations: 01.07.2020 13:00:00 - 07.07.2020 13:00:00 (BST)
Date & Time tt [°C] td [°C] tt -20cm [°C] rr [mm]
07.07.2020 13:00:00 19,7 8,4 - -
07.07.2020 12:00:00 19,6 8,6 - 0,0
07.07.2020 11:00:00 18,5 8,7 - 0,0
07.07.2020 10:00:00 18,4 9,6 17,9 0,0
07.07.2020 09:00:00 17,1 8,9 - 0,0
07.07.2020 08:00:00 14,2 8,3 - 0,0
07.07.2020 07:00:00 13,3 8,0 - 0,0
07.07.2020 06:00:00 12,4 7,4 - 0,0
07.07.2020 05:00:00 12,5 7,3 - 0,0
07.07.2020 04:00:00 11,3 7,4 - 0,0
07.07.2020 03:00:00 11,4 6,5 - 0,0
07.07.2020 02:00:00 12,6 6,0 - 0,0
07.07.2020 01:00:00 14,6 6,0 - 0,0
07.07.2020 00:00:00 15,9 5,3 - 0,0
06.07.2020 23:00:00 15,6 5,3 - 0,0
06.07.2020 22:00:00 16,7 5,2 - 0,0
06.07.2020 21:00:00 17,8 7,1 - 0,0
06.07.2020 20:00:00 18,5 7,8 - 0,0
06.07.2020 19:00:00 19,0 7,8 - 0,0
06.07.2020 18:00:00 19,4 7,7 - 0,0
06.07.2020 17:00:00 19,8 9,2 - 0,0
06.07.2020 16:00:00 18,7 7,9 - 0,0
06.07.2020 15:00:00 18,4 8,3 - 0,0
06.07.2020 14:00:00 17,8 8,0 - 0,0
06.07.2020 13:00:00 18,1 8,9 - 0,0
06.07.2020 12:00:00 17,2 7,9 - 0,0
06.07.2020 11:00:00 17,4 7,5 - 0,0
06.07.2020 10:00:00 16,3 7,3 18,2 0,0
06.07.2020 09:00:00 15,5 7,8 - 0,0
06.07.2020 08:00:00 14,3 8,6 - 0,0
06.07.2020 07:00:00 13,4 8,6 - 0,0
06.07.2020 06:00:00 12,2 8,4 - 0,0
06.07.2020 05:00:00 12,2 8,4 - 0,0
06.07.2020 04:00:00 12,4 8,4 - 0,0
06.07.2020 03:00:00 12,8 8,6 - 0,0
06.07.2020 02:00:00 13,3 8,5 - 0,0
06.07.2020 01:00:00 13,8 8,4 - 0,0
06.07.2020 00:00:00 14,3 8,0 - 0,0
05.07.2020 23:00:00 14,7 7,6 - 0,0
05.07.2020 22:00:00 15,6 6,9 - 0,0
05.07.2020 21:00:00 16,4 6,2 - 0,0
05.07.2020 20:00:00 17,5 5,4 - 0,0
05.07.2020 19:00:00 18,2 5,6 - 0,0
05.07.2020 18:00:00 19,3 5,6 - 0,0
05.07.2020 17:00:00 19,9 6,8 - 0,0
05.07.2020 16:00:00 20,7 7,8 - 0,0
05.07.2020 15:00:00 21,5 7,8 - 0,0
05.07.2020 14:00:00 20,9 7,8 - 0,0
05.07.2020 13:00:00 20,5 9,3 - 0,0
05.07.2020 12:00:00 20,7 9,7 - 0,0
05.07.2020 11:00:00 19,9 10,2 - 0,0
05.07.2020 10:00:00 19,4 10,6 18,5 0,0
05.07.2020 09:00:00 18,6 12,8 - 0,0
05.07.2020 08:00:00 18,1 14,4 - 0,0
05.07.2020 07:00:00 17,5 14,6 - 0,0
05.07.2020 06:00:00 17,3 14,5 - 0,0
05.07.2020 05:00:00 17,4 14,8 - 0,0
05.07.2020 04:00:00 17,2 14,8 - 0,0
05.07.2020 03:00:00 17,0 14,5 - 0,0
05.07.2020 02:00:00 17,1 14,4 - 0,0
05.07.2020 01:00:00 17,6 14,7 - 0,0
05.07.2020 00:00:00 17,9 15,0 - 0,0
04.07.2020 23:00:00 17,9 15,5 - 0,0
04.07.2020 22:00:00 18,0 15,6 - 0,0
04.07.2020 21:00:00 17,7 15,8 - 0,0
04.07.2020 20:00:00 18,5 15,3 - 0,0
04.07.2020 19:00:00 18,6 15,5 - 0,0
04.07.2020 18:00:00 18,8 15,7 - 0,0
04.07.2020 17:00:00 19,3 15,7 - 0,0
04.07.2020 16:00:00 20,3 16,0 - 0,0
04.07.2020 15:00:00 19,7 15,6 - 0,0
04.07.2020 14:00:00 19,5 15,6 - 0,0
04.07.2020 13:00:00 19,1 15,6 - 0,0
04.07.2020 12:00:00 19,1 15,0 - 0,0
04.07.2020 11:00:00 19,4 14,9 - 0,0
04.07.2020 10:00:00 18,6 15,2 18,4 0,0
04.07.2020 09:00:00 17,7 15,0 - 0,0
04.07.2020 08:00:00 17,2 14,9 - 0,0
04.07.2020 07:00:00 16,7 14,6 - 0,0
04.07.2020 06:00:00 16,1 14,5 - 0,0
04.07.2020 05:00:00 15,5 14,3 - 0,2
04.07.2020 04:00:00 15,4 14,2 - 0,2
04.07.2020 03:00:00 15,6 13,8 - 0,0
04.07.2020 02:00:00 15,8 13,5 - 0,0
04.07.2020 01:00:00 15,7 13,2 - 0,0
04.07.2020 00:00:00 15,4 13,0 - 0,0
03.07.2020 23:00:00 15,0 12,9 - 0,2
03.07.2020 22:00:00 14,8 12,8 - 0,4
03.07.2020 21:00:00 15,2 12,4 - 0,4
03.07.2020 20:00:00 16,1 11,7 - 0,2
03.07.2020 19:00:00 18,3 10,6 - 0,0
03.07.2020 18:00:00 18,7 10,6 - 0,0
03.07.2020 17:00:00 19,1 10,5 - 0,0
03.07.2020 16:00:00 19,2 10,1 - 0,0
03.07.2020 15:00:00 20,1 11,0 - 0,0
03.07.2020 14:00:00 20,3 11,5 - 0,0
03.07.2020 13:00:00 20,2 10,8 - 0,0
03.07.2020 12:00:00 18,4 9,3 - 0,0
03.07.2020 11:00:00 18,0 9,6 - 0,0
03.07.2020 10:00:00 17,1 9,9 17,9 0,0
03.07.2020 09:00:00 16,6 10,7 - 0,0
03.07.2020 08:00:00 13,8 10,7 - 0,0
03.07.2020 07:00:00 13,1 10,9 - 0,0
03.07.2020 06:00:00 12,7 10,9 - 0,0
03.07.2020 05:00:00 12,6 11,5 - 0,0
03.07.2020 04:00:00 13,0 11,9 - 0,0
03.07.2020 03:00:00 13,7 13,1 - 0,0
03.07.2020 02:00:00 14,0 13,2 - 0,0
03.07.2020 01:00:00 15,1 14,5 - 0,0
03.07.2020 00:00:00 15,4 14,8 - 0,0
02.07.2020 23:00:00 15,5 14,8 - 0,0
02.07.2020 22:00:00 15,7 14,9 - 0,0
02.07.2020 21:00:00 15,9 15,0 - 0,0
02.07.2020 20:00:00 16,1 14,4 - 4,6
02.07.2020 19:00:00 17,7 13,3 - 0,2
02.07.2020 18:00:00 17,6 13,1 - 0,2
02.07.2020 17:00:00 19,9 12,6 - 0,0
02.07.2020 16:00:00 18,8 12,3 - 0,0
02.07.2020 15:00:00 18,3 13,1 - 0,0
02.07.2020 14:00:00 18,7 13,6 - 0,2
02.07.2020 13:00:00 17,8 11,9 - 0,0
02.07.2020 12:00:00 16,8 12,7 - 0,2
02.07.2020 11:00:00 16,7 12,2 - 0,0
02.07.2020 10:00:00 15,9 11,4 17,7 0,0
02.07.2020 09:00:00 15,6 11,0 - 0,0
02.07.2020 08:00:00 14,9 11,4 - 0,0
02.07.2020 07:00:00 13,4 10,6 - 0,0
02.07.2020 06:00:00 13,0 10,5 - 0,0
02.07.2020 05:00:00 12,7 10,2 - 0,0
02.07.2020 04:00:00 13,2 10,3 - 0,0
02.07.2020 03:00:00 13,3 9,8 - 0,0
02.07.2020 02:00:00 14,5 9,4 - 0,0
02.07.2020 01:00:00 15,6 13,0 - 0,0
02.07.2020 00:00:00 15,8 13,4 - 0,0
01.07.2020 23:00:00 16,1 13,5 - 0,0
01.07.2020 22:00:00 16,4 13,0 - 0,0
01.07.2020 21:00:00 16,6 13,7 - 0,0
01.07.2020 20:00:00 17,5 13,4 - 0,0
01.07.2020 19:00:00 18,5 13,7 - 0,0
01.07.2020 18:00:00 19,3 14,8 - 0,0
01.07.2020 17:00:00 19,0 15,0 - 0,0
01.07.2020 16:00:00 18,2 14,5 - 4,8
01.07.2020 15:00:00 19,5 13,8 - 0,0
01.07.2020 14:00:00 20,0 12,4 - 0,0
01.07.2020 13:00:00 20,2 11,2 - 0,0

tt = Température de l'air
td = dewpoint
tt -20cm = Température de l'air -20cm
rr = Quantités de précipitations

stations d'obs. à proximité